This is the latest recevied weather packets stored in our database for station/object KA4YMY. If no packets are shown the sender has not sent any weather packets the latest 10 day(s).
| Time | Temp. | Humidity | Pressure | Rain* | Wind** | Luminosity | Snow |
|---|---|---|---|---|---|---|---|
| 1777925117 | 24.44° C | 33% | 1014 hPa | 0 mm | - | - | - |
| 1777924517 | 24.44° C | 34% | 1014 hPa | 0 mm | - | - | - |
| 1777923917 | 25° C | 36% | 1014.2 hPa | 0 mm | - | - | - |
| 1777923317 | 25° C | 36% | 1014.3 hPa | 0 mm | - | - | - |
| 1777922717 | 25° C | 40% | 1014.3 hPa | 0 mm | - | - | - |
| 1777922117 | 25° C | 39% | 1014.5 hPa | 0 mm | - | - | - |
| 1777921517 | 25° C | 41% | 1014.6 hPa | 0 mm | - | - | - |
| 1777920917 | 25° C | 38% | 1014.7 hPa | 0 mm | - | - | - |
| 1777920317 | 25° C | 37% | 1014.7 hPa | 0 mm | - | - | - |
| 1777919717 | 25° C | 34% | 1014.8 hPa | 0 mm | - | - | - |
| 1777919117 | 25° C | 36% | 1015 hPa | 0 mm | - | - | - |
| 1777918517 | 25° C | 37% | 1015.2 hPa | 0 mm | - | - | - |
| 1777917917 | 24.44° C | 38% | 1015.3 hPa | 0 mm | - | - | - |
| 1777917317 | 24.44° C | 38% | 1015.4 hPa | 0 mm | - | - | - |
| 1777916717 | 25° C | 39% | 1015.6 hPa | 0 mm | - | - | - |
| 1777916117 | 25° C | 37% | 1015.7 hPa | 0 mm | - | - | - |
| 1777915517 | 24.44° C | 33% | 1015.7 hPa | 0 mm | - | - | - |
| 1777914917 | 23.33° C | 32% | 1015.8 hPa | 0 mm | - | - | - |
| 1777914317 | 23.33° C | 35% | 1015.8 hPa | 0 mm | - | - | - |
| 1777913717 | 23.89° C | 36% | 1016.1 hPa | 0 mm | - | - | - |
| 1777913117 | 25° C | 33% | 1016.1 hPa | 0 mm | - | - | - |
| 1777912517 | 25° C | 34% | 1016.3 hPa | 0 mm | - | - | - |
| 1777911917 | 25° C | 31% | 1016.7 hPa | 0 mm | - | - | - |
| 1777911317 | 23.89° C | 34% | 1016.8 hPa | 0 mm | - | - | - |
| 1777910716 | 24.44° C | 37% | 1017.1 hPa | 0 mm | - | - | - |
* Rain latest hour (hover to see other rain measurements)
** Current wind speed in m/s (hover to see current wind gust speed)